Rolla, MO

5:07 AM CDT on April 25, 2017 (GMT -0500)
Rolla National

Weather History for KVIH - January, 2014

Change the Weather History Date:

Thursday, January 16, 2014

  Actual Average Record
Temperature  
Mean Temperature 34 °F 31 °F  
Max Temperature 46 °F 40 °F 70 °F (1952)
Min Temperature 21 °F 21 °F -10 °F (1977)
Degree Days  
Heating Degree Days 31 34  
Month to date heating degree days 613 544  
Since 1 July heating degree days 2700 2461  
Cooling Degree Days 0 0  
Month to date cooling degree days 0 0  
Year to date cooling degree days 0 0  
Moisture  
Dew Point 19 °F    
Average Humidity 55    
Maximum Humidity 70    
Minimum Humidity 39    
Precipitation  
Precipitation T in 0.08 in 0.79 in (1994)
Month to date precipitation 0.84 1.21  
Year to date precipitation 0.84 1.21  
Sea Level Pressure  
Sea Level Pressure 29.82 in    
Wind  
Wind Speed 16 mph (WSW)    
Max Wind Speed 35 mph    
Max Gust Speed 43 mph    
Visibility 10 miles    
Events      
T = Trace of Precipitation, MM = Missing Value Source: NWS Daily Summary

Daily Weather History Graph

Daily Weather History Graph

Search for Another Location

Airport or City:

Trip Planner

Search our weather history database for the weather conditions in past years. The results will help you decide how hot, cold, wet, or windy it might be!

Date:

Astronomy

Jan. 16, 2014 Rise Set
Actual Time 7:21 AM CST 5:12 PM CST
Civil Twilight 6:53 AM CST 5:41 PM CST
Nautical Twilight 6:20 AM CST 6:13 PM CST
Astronomical Twilight 5:49 AM CST 6:45 PM CST
Moon 6:02 PM CST (1/16) 7:16 AM CST (1/16)
Length of Visible Light 10h 48m
Length of Day
9h 50m
Full, 100% of the Moon is Illuminated
Jan 16
Full
Jan 23
Last Quarter
Jan 30
New
Feb 6
First Quarter
Feb 14
Full

Hourly Weather History & Observations

Time (CST) Temp. Windchill Dew Point Humidity Pressure Visibility Wind Dir Wind Speed Gust Speed Precip Events Conditions
12:53 AM 30.9 °F 19.8 °F 12.0 °F 46% 29.90 in 10.0 mi SSW 16.1 mph - N/A   Overcast
1:53 AM 32.0 °F 21.2 °F 12.9 °F 45% 29.88 in 10.0 mi South 16.1 mph - N/A   Overcast
2:53 AM 32.0 °F 20.5 °F 14.0 °F 48% 29.84 in 10.0 mi South 18.4 mph - N/A   Overcast
3:53 AM 33.1 °F 23.9 °F 14.0 °F 46% 29.83 in 10.0 mi South 12.7 mph - N/A   Overcast
4:53 AM 33.1 °F 23.0 °F 14.0 °F 46% 29.81 in 10.0 mi South 15.0 mph - N/A   Overcast
5:53 AM 33.1 °F 23.4 °F 15.1 °F 48% 29.80 in 10.0 mi SSW 13.8 mph - N/A   Overcast
6:53 AM 34.0 °F 24.2 °F 17.1 °F 50% 29.75 in 10.0 mi SSW 15.0 mph - N/A   Mostly Cloudy
7:53 AM 32.0 °F 21.2 °F 18.0 °F 56% 29.78 in 10.0 mi SW 16.1 mph - N/A   Clear
8:53 AM 37.0 °F 28.9 °F 21.0 °F 52% 29.80 in 10.0 mi SW 12.7 mph - N/A   Clear
9:53 AM 43.0 °F 36.0 °F 25.0 °F 49% 29.79 in 10.0 mi West 13.8 mph - N/A   Clear
10:53 AM 44.1 °F 36.8 °F 27.0 °F 51% 29.80 in 10.0 mi NW 16.1 mph - N/A   Overcast
11:53 AM 44.1 °F 36.8 °F 26.1 °F 49% 29.78 in 10.0 mi NW 16.1 mph 29.9 mph N/A   Overcast
12:53 PM 44.1 °F 37.1 °F 25.0 °F 47% 29.76 in 10.0 mi WNW 15.0 mph - N/A   Overcast
1:53 PM 43.0 °F 34.8 °F 21.9 °F 43% 29.77 in 10.0 mi WNW 18.4 mph 28.8 mph N/A   Overcast
2:53 PM 43.0 °F 34.8 °F 19.9 °F 40% 29.78 in 10.0 mi WNW 18.4 mph 27.6 mph N/A   Overcast
3:53 PM 42.1 °F 32.6 °F 21.9 °F 45% 29.81 in 10.0 mi West 23.0 mph 36.8 mph N/A   Overcast
4:53 PM 41.0 °F 34.7 °F 21.9 °F 47% 29.81 in 10.0 mi West 10.4 mph - N/A   Overcast
5:46 PM 37.0 °F 29.3 °F 25.0 °F 62% 29.80 in 10.0 mi West 11.5 mph - N/A   Mostly Cloudy
5:53 PM 36.0 °F 28.5 °F 26.1 °F 67% 29.83 in 10.0 mi WSW 10.4 mph - N/A   Scattered Clouds
6:53 PM 35.1 °F 27.9 °F 24.1 °F 64% 29.83 in 10.0 mi WSW 9.2 mph - N/A   Scattered Clouds
7:53 PM 35.1 °F 29.3 °F 21.9 °F 59% 29.84 in 10.0 mi West 6.9 mph - N/A   Mostly Cloudy
8:53 PM 35.1 °F 23.8 °F 21.9 °F 59% 29.86 in 9.0 mi WNW 20.7 mph 31.1 mph 0.00 in   Overcast
9:53 PM 33.1 °F 20.3 °F 15.1 °F 48% 29.89 in 10.0 mi WNW 24.2 mph 35.7 mph N/A   Overcast
10:53 PM 25.0 °F 9.2 °F 8.1 °F 49% 29.93 in 10.0 mi NW 25.3 mph 33.4 mph 0.00 in   Clear
11:53 PM 21.0 °F 5.0 °F 6.1 °F 53% 29.95 in 10.0 mi NW 21.9 mph 31.1 mph N/A   Partly Cloudy